Avoca, PA

4:11 AM EST on December 11, 2019 (GMT -0500)
Wilkes-Barre-Scranton International

Weather History for KAVP - August, 2019

Change the Weather History Date:

Thursday, August 1, 2019

  Actual Average Record
Temperature  
Mean Temperature 76 °F 71 °F  
Max Temperature 86 °F 82 °F 96 °F (1955)
Min Temperature 65 °F 61 °F 48 °F (1910)
Degree Days  
Heating Degree Days 0 0  
Month to date heating degree days 0 0  
Since 1 June heating degree days 32 62  
Since 1 July heating degree days 0 8  
Cooling Degree Days 11 6  
Month to date cooling degree days 11 6  
Year to date cooling degree days 525 366  
Since 1 June cooling degree days 475 329  
Growing Degree Days 25 (Base 50)    
Moisture  
Dew Point 62 °F    
Average Humidity 68    
Maximum Humidity 93    
Minimum Humidity 43    
Precipitation  
Precipitation 0.00 in 0.13 in 1.36 in (1965)
Month to date precipitation 0.00 0.13  
Year to date precipitation 32.08 21.75  
Sea Level Pressure  
Sea Level Pressure 30.09 in    
Wind  
Wind Speed 4 mph (East)    
Max Wind Speed 12 mph    
Max Gust Speed 16 mph    
Visibility 10 miles    
Events      
T = Trace of Precipitation, MM = Missing Value Source: NWS Daily Summary

Daily Weather History Graph

Daily Weather History Graph

Search for Another Location

Airport or City:

Astronomy

Aug. 01, 2019 Rise Set
Actual Time 5:57 AM EDT 8:20 PM EDT
Civil Twilight 5:26 AM EDT 8:51 PM EDT
Nautical Twilight 4:48 AM EDT 9:29 PM EDT
Astronomical Twilight 4:05 AM EDT 10:12 PM EDT
Moon 6:19 AM EDT (8/1) 9:05 PM EDT (8/1)
Length of Visible Light 15h 24m
Length of Day
14h 22m
New Moon, 0% of the Moon is Illuminated
Aug 1
New Moon
Aug 7
First Quarter
Aug 15
Full
Aug 23
Last Quarter
Aug 30
New

Hourly Weather History & Observations

Time (EDT) Temp. Heat Index Dew Point Humidity Pressure Visibility Wind Dir Wind Speed Gust Speed Precip Events Conditions
12:54 AM 70.0 °F - 66.0 °F 87% 30.06 in 10.0 mi ESE 5.8 mph - N/A   Clear
1:54 AM 69.1 °F - 66.0 °F 90% 30.06 in 10.0 mi ESE 4.6 mph - N/A   Clear
2:54 AM 68.0 °F - 64.9 °F 90% 30.06 in 10.0 mi ESE 5.8 mph - N/A   Clear
3:54 AM 66.9 °F - 64.9 °F 93% 30.06 in 10.0 mi East 4.6 mph - N/A   Partly Cloudy
4:54 AM 66.0 °F - 64.0 °F 93% 30.07 in 10.0 mi ESE 5.8 mph - N/A   Clear
5:54 AM 64.9 °F - 63.0 °F 93% 30.08 in 9.0 mi ESE 5.8 mph - N/A   Clear
6:54 AM 66.0 °F - 63.0 °F 90% 30.09 in 9.0 mi Calm Calm - N/A   Clear
7:11 AM 66.9 °F - 64.0 °F 90% 30.12 in 9.0 mi Calm Calm - N/A   Partly Cloudy
7:54 AM 70.0 °F - 64.9 °F 84% 30.11 in 9.0 mi Calm Calm - N/A   Clear
8:54 AM 75.0 °F - 64.0 °F 69% 30.11 in 10.0 mi Calm Calm - N/A   Clear
9:54 AM 77.0 °F - 61.0 °F 58% 30.12 in 10.0 mi NE 4.6 mph - N/A   Clear
10:54 AM 79.0 °F - 57.9 °F 48% 30.13 in 10.0 mi Variable 3.5 mph - N/A   Mostly Cloudy
11:54 AM 80.1 °F 80.6 °F 57.9 °F 47% 30.13 in 10.0 mi Calm Calm - N/A   Mostly Cloudy
12:54 PM 82.0 °F 83.0 °F 62.1 °F 51% 30.13 in 10.0 mi WNW 4.6 mph - N/A   Mostly Cloudy
1:54 PM 84.0 °F 84.5 °F 62.1 °F 47% 30.12 in 10.0 mi North 5.8 mph - N/A   Partly Cloudy
2:54 PM 84.0 °F 84.5 °F 62.1 °F 47% 30.11 in 10.0 mi NW 5.8 mph - N/A   Clear
3:54 PM 82.0 °F 82.4 °F 60.1 °F 47% 30.09 in 10.0 mi WNW 6.9 mph - N/A   Scattered Clouds
4:54 PM 84.9 °F 84.8 °F 60.1 °F 43% 30.08 in 10.0 mi Calm Calm - N/A   Partly Cloudy
5:54 PM 84.0 °F 83.8 °F 59.0 °F 43% 30.06 in 10.0 mi Variable 4.6 mph - N/A   Clear
6:54 PM 82.9 °F 82.8 °F 59.0 °F 44% 30.06 in 10.0 mi NNW 5.8 mph - N/A   Partly Cloudy
7:54 PM 80.1 °F 81.1 °F 61.0 °F 52% 30.07 in 10.0 mi NW 4.6 mph - N/A   Mostly Cloudy
8:54 PM 73.0 °F - 63.0 °F 71% 30.09 in 10.0 mi ESE 3.5 mph - N/A   Partly Cloudy
9:54 PM 72.0 °F - 62.1 °F 71% 30.10 in 10.0 mi ESE 5.8 mph - N/A   Clear
10:54 PM 69.1 °F - 63.0 °F 81% 30.10 in 10.0 mi ESE 6.9 mph - N/A   Clear
11:54 PM 68.0 °F - 62.1 °F 81% 30.12 in 10.0 mi ESE 5.8 mph - N/A   Clear